Time,TemperatureF,DewpointF,PressureIn,WindDirection,WindDirectionDegrees,WindSpeedMPH,WindSpeedGustMPH,Humidity,HourlyPrecipIn,Conditions,Clouds,dailyrainin,SoftwareType,DateUTC
2013-10-10 00:00:00,68.2,59.2,29.94,NW,315,0.0,4.0,73,0.00,,,-99.99,WeatherLink 6.0.3,2013-10-10 04:00:00,
2013-10-10 00:01:00,51.8,48.7,30.09,ESE,110,0.0,0.0,89,0.00,,,0.00,Wunderground v.1.15,2013-10-10 04:01:00,
2013-10-10 00:02:00,51.8,48.7,30.10,ESE,110,0.0,0.0,89,0.00,,,0.00,Wunderground v.1.15,2013-10-10 04:02:00,
2013-10-10 00:04:00,51.9,48.8,30.09,ESE,110,0.0,0.0,89,0.00,,,0.00,Wunderground v.1.15,2013-10-10 04:04:00,
2013-10-10 00:06:00,51.9,48.8,30.09,ESE,110,0.0,0.0,89,0.00,,,0.00,Wunderground v.1.15,2013-10-10 04:06:00,
2013-10-10 00:09:00,51.9,48.8,30.09,ESE,111,0.0,0.0,89,0.00,,,0.00,Wunderground v.1.15,2013-10-10 04:09:00,
2013-10-10 00:15:00,52.0,48.9,30.09,ESE,110,0.0,0.0,89,0.00,,,0.00,Wunderground v.1.15,2013-10-10 04:15:00,
2013-10-10 00:20:00,52.0,48.9,30.09,ESE,111,0.0,0.0,89,0.00,,,0.00,Wunderground v.1.15,2013-10-10 04:20:00,
2013-10-10 00:25:00,51.9,48.8,30.08,ESE,111,0.0,0.0,89,0.00,,,0.00,Wunderground v.1.15,2013-10-10 04:25:00,
2013-10-10 00:30:00,71.3,59.4,29.93,NE,45,1.0,12.0,66,0.00,,,-99.99,WeatherLink 6.0.3,2013-10-10 04:30:00,
2013-10-10 00:31:00,51.6,48.8,30.08,ESE,110,0.0,0.0,90,0.00,,,0.00,Wunderground v.1.15,2013-10-10 04:31:00,
2013-10-10 00:37:00,51.4,48.9,30.08,ESE,111,0.0,0.0,91,0.00,,,0.00,Wunderground v.1.15,2013-10-10 04:37:00,
2013-10-10 00:43:00,51.1,48.3,30.08,ESE,110,0.0,0.0,90,0.00,,,0.00,Wunderground v.1.15,2013-10-10 04:43:00,
2013-10-10 00:48:00,50.8,48.0,30.08,ESE,111,0.0,0.0,90,0.00,,,0.00,Wunderground v.1.15,2013-10-10 04:48:00,
2013-10-10 00:53:00,50.6,48.1,30.07,ESE,111,0.0,0.0,91,0.00,,,0.00,Wunderground v.1.15,2013-10-10 04:53:00,
2013-10-10 00:59:00,50.5,48.0,30.07,ESE,111,0.0,0.0,91,0.00,,,0.00,Wunderground v.1.15,2013-10-10 04:59:00,
2013-10-10 01:00:00,73.2,59.8,29.92,WNW,292,1.0,9.0,63,0.00,,,-99.99,WeatherLink 6.0.3,2013-10-10 05:00:00,
2013-10-10 01:05:00,50.6,48.4,30.07,ESE,111,0.0,0.0,92,0.00,,,0.00,Wunderground v.1.15,2013-10-10 05:05:00,
2013-10-10 01:10:00,50.8,48.6,30.07,ESE,111,0.0,0.0,92,0.00,,,0.00,Wunderground v.1.15,2013-10-10 05:10:00,
2013-10-10 01:16:00,50.8,48.0,30.06,ESE,110,0.0,0.0,90,0.00,,,0.00,Wunderground v.1.15,2013-10-10 05:16:00,
2013-10-10 01:21:00,50.5,47.7,30.06,ESE,111,0.0,0.0,90,0.00,,,0.00,Wunderground v.1.15,2013-10-10 05:21:00,
2013-10-10 01:27:00,50.5,48.3,30.05,ESE,111,0.0,0.0,92,0.00,,,0.00,Wunderground v.1.15,2013-10-10 05:27:00,
2013-10-10 01:30:00,74.5,60.2,29.91,NW,315,1.0,10.0,61,0.00,,,-99.99,WeatherLink 6.0.3,2013-10-10 05:30:00,
2013-10-10 01:32:00,50.7,48.2,30.05,ESE,111,0.0,0.0,91,0.00,,,0.00,Wunderground v.1.15,2013-10-10 05:32:00,
2013-10-10 01:37:00,50.9,48.7,30.05,ESE,111,0.0,0.0,92,0.00,,,0.00,Wunderground v.1.15,2013-10-10 05:37:00,
2013-10-10 01:43:00,51.2,48.4,30.05,ESE,111,0.0,0.0,90,0.00,,,0.00,Wunderground v.1.15,2013-10-10 05:43:00,
2013-10-10 01:49:00,50.9,48.1,30.05,ESE,111,0.0,0.0,90,0.00,,,0.00,Wunderground v.1.15,2013-10-10 05:49:00,
2013-10-10 01:54:00,50.7,47.9,30.05,ESE,110,0.0,0.0,90,0.00,,,0.00,Wunderground v.1.15,2013-10-10 05:54:00,
2013-10-10 01:59:00,50.3,47.2,30.05,ESE,110,0.0,0.0,89,0.00,,,0.00,Wunderground v.1.15,2013-10-10 05:59:00,
2013-10-10 02:00:00,76.2,61.3,29.91,WNW,292,1.0,5.0,60,0.00,,,-99.99,WeatherLink 6.0.3,2013-10-10 06:00:00,
2013-10-10 02:04:00,49.9,47.1,30.05,ESE,110,0.0,0.0,90,0.00,,,0.00,Wunderground v.1.15,2013-10-10 06:04:00,
2013-10-10 02:09:00,49.5,46.7,30.05,ESE,110,0.0,0.0,90,0.00,,,0.00,Wunderground v.1.15,2013-10-10 06:09:00,
2013-10-10 02:14:00,49.2,46.7,30.06,ESE,111,0.0,0.0,91,0.00,,,0.00,Wunderground v.1.15,2013-10-10 06:14:00,
2013-10-10 02:19:00,48.8,46.3,30.05,ESE,110,0.0,0.0,91,0.00,,,0.00,Wunderground v.1.15,2013-10-10 06:19:00,
2013-10-10 02:24:00,48.5,46.0,30.05,ESE,111,0.0,0.0,91,0.00,,,0.00,Wunderground v.1.15,2013-10-10 06:24:00,
2013-10-10 02:29:00,48.3,46.1,30.05,ESE,111,0.0,0.0,92,0.00,,,0.00,Wunderground v.1.15,2013-10-10 06:29:00,
2013-10-10 02:30:00,77.6,60.7,29.90,WNW,292,1.0,6.0,56,0.00,,,-99.99,WeatherLink 6.0.3,2013-10-10 06:30:00,
2013-10-10 02:34:00,48.2,46.0,30.05,ESE,111,0.0,0.0,92,0.00,,,0.00,Wunderground v.1.15,2013-10-10 06:34:00,
2013-10-10 02:39:00,47.8,45.9,30.05,ESE,110,0.0,0.0,93,0.00,,,0.00,Wunderground v.1.15,2013-10-10 06:39:00,
2013-10-10 02:44:00,47.6,45.7,30.05,ESE,111,0.0,0.0,93,0.00,,,0.00,Wunderground v.1.15,2013-10-10 06:44:00,
2013-10-10 02:49:00,47.6,46.0,30.05,ESE,111,0.0,0.0,94,0.00,,,0.00,Wunderground v.1.15,2013-10-10 06:49:00,
2013-10-10 02:54:00,47.7,46.1,30.05,ESE,111,0.0,0.0,94,0.00,,,0.00,Wunderground v.1.15,2013-10-10 06:54:00,
2013-10-10 02:59:00,47.9,46.3,30.05,ESE,111,0.0,0.0,94,0.00,,,0.00,Wunderground v.1.15,2013-10-10 06:59:00,
2013-10-10 03:00:00,76.9,60.5,29.88,WNW,292,1.0,8.0,57,0.00,,,-99.99,WeatherLink 6.0.3,2013-10-10 07:00:00,
2013-10-10 03:04:00,48.3,46.9,30.05,ESE,111,0.0,0.0,95,0.00,,,0.00,Wunderground v.1.15,2013-10-10 07:04:00,
2013-10-10 03:09:00,48.3,46.9,30.04,ESE,111,0.0,0.0,95,0.00,,,0.00,Wunderground v.1.15,2013-10-10 07:09:00,
2013-10-10 03:14:00,48.0,46.4,30.04,ESE,111,0.0,0.0,94,0.00,,,0.00,Wunderground v.1.15,2013-10-10 07:14:00,
2013-10-10 03:19:00,47.8,46.4,30.04,ESE,110,0.0,0.0,95,0.00,,,0.00,Wunderground v.1.15,2013-10-10 07:19:00,
2013-10-10 03:24:00,47.7,46.1,30.04,ESE,111,0.0,0.0,94,0.00,,,0.00,Wunderground v.1.15,2013-10-10 07:24:00,
2013-10-10 03:29:00,47.4,45.8,30.05,ESE,111,0.0,0.0,94,0.00,,,0.00,Wunderground v.1.15,2013-10-10 07:29:00,
2013-10-10 03:30:00,79.3,59.6,29.87,WNW,292,1.0,10.0,51,0.00,,,-99.99,WeatherLink 6.0.3,2013-10-10 07:30:00,
2013-10-10 03:34:00,47.0,45.4,30.05,ESE,110,0.0,0.0,94,0.00,,,0.00,Wunderground v.1.15,2013-10-10 07:34:00,
2013-10-10 03:40:00,46.9,45.5,30.05,ESE,111,0.0,0.0,95,0.00,,,0.00,Wunderground v.1.15,2013-10-10 07:40:00,
2013-10-10 03:45:00,46.8,45.4,30.05,ESE,111,0.0,0.0,95,0.00,,,0.00,Wunderground v.1.15,2013-10-10 07:45:00,
2013-10-10 03:50:00,46.6,45.0,30.05,ESE,111,0.0,0.0,94,0.00,,,0.00,Wunderground v.1.15,2013-10-10 07:50:00,
2013-10-10 03:55:00,46.4,45.0,30.05,ESE,111,0.0,0.0,95,0.00,,,0.00,Wunderground v.1.15,2013-10-10 07:55:00,
2013-10-10 04:00:00,46.7,45.6,30.05,ESE,111,0.0,0.0,96,0.00,,,0.00,Wunderground v.1.15,2013-10-10 08:00:00,
2013-10-10 04:05:00,47.3,46.2,30.05,ESE,110,0.0,0.0,96,0.00,,,0.00,Wunderground v.1.15,2013-10-10 08:05:00,
2013-10-10 04:10:00,47.6,46.5,30.05,ESE,110,0.0,0.0,96,0.00,,,0.00,Wunderground v.1.15,2013-10-10 08:10:00,
2013-10-10 04:15:00,47.6,46.5,30.05,ESE,111,0.0,0.0,96,0.00,,,0.00,Wunderground v.1.15,2013-10-10 08:15:00,
2013-10-10 04:20:00,47.6,46.5,30.05,ESE,111,0.0,0.0,96,0.00,,,0.00,Wunderground v.1.15,2013-10-10 08:20:00,
2013-10-10 04:25:00,47.6,46.5,30.05,ESE,111,0.0,0.0,96,0.00,,,0.00,Wunderground v.1.15,2013-10-10 08:25:00,
2013-10-10 04:30:00,48.3,47.5,30.05,ESE,111,0.0,0.0,97,0.00,,,0.00,Wunderground v.1.15,2013-10-10 08:30:00,
2013-10-10 04:35:00,48.2,47.1,30.05,ESE,110,0.0,0.0,96,0.00,,,0.00,Wunderground v.1.15,2013-10-10 08:35:00,
2013-10-10 04:40:00,48.0,46.9,30.05,ESE,111,0.0,0.0,96,0.00,,,0.00,Wunderground v.1.15,2013-10-10 08:40:00,
2013-10-10 04:45:00,48.1,46.7,30.04,ESE,110,0.0,2.0,95,0.00,,,0.00,Wunderground v.1.15,2013-10-10 08:45:00,
2013-10-10 04:50:00,48.1,46.7,30.04,ESE,110,1.0,1.0,95,0.00,,,0.00,Wunderground v.1.15,2013-10-10 08:50:00,
2013-10-10 04:55:00,48.1,46.7,30.04,ESE,111,0.0,1.0,95,0.00,,,0.00,Wunderground v.1.15,2013-10-10 08:55:00,
2013-10-10 05:00:00,48.3,46.9,30.04,ESE,111,1.0,1.0,95,0.00,,,0.00,Wunderground v.1.15,2013-10-10 09:00:00,
2013-10-10 05:05:00,48.5,47.1,30.04,ESE,111,1.0,2.0,95,0.00,,,0.00,Wunderground v.1.15,2013-10-10 09:05:00,
2013-10-10 05:10:00,48.8,47.4,30.04,ESE,111,1.0,1.0,95,0.00,,,0.00,Wunderground v.1.15,2013-10-10 09:10:00,
2013-10-10 05:15:00,49.0,47.6,30.04,ESE,111,0.0,2.0,95,0.00,,,0.00,Wunderground v.1.15,2013-10-10 09:15:00,
2013-10-10 05:21:00,49.1,47.4,30.04,ESE,111,0.0,1.0,94,0.00,,,0.00,Wunderground v.1.15,2013-10-10 09:21:00,
2013-10-10 05:26:00,49.2,47.8,30.04,ESE,111,0.0,1.0,95,0.00,,,0.00,Wunderground v.1.15,2013-10-10 09:26:00,
2013-10-10 05:30:00,78.8,58.6,29.84,NNE,22,1.0,8.0,50,0.00,,,-99.99,WeatherLink 6.0.3,2013-10-10 09:30:00,
2013-10-10 05:31:00,49.4,47.7,30.04,ESE,111,0.0,1.0,94,0.00,,,0.00,Wunderground v.1.15,2013-10-10 09:31:00,
2013-10-10 05:36:00,49.5,47.8,30.04,ESE,110,0.0,2.0,94,0.00,,,0.00,Wunderground v.1.15,2013-10-10 09:36:00,
2013-10-10 05:41:00,49.5,47.8,30.04,NE,44,0.0,3.0,94,0.00,,,0.00,Wunderground v.1.15,2013-10-10 09:41:00,
2013-10-10 05:46:00,49.5,47.8,30.04,NE,35,0.0,3.0,94,0.00,,,0.00,Wunderground v.1.15,2013-10-10 09:46:00,
2013-10-10 05:51:00,49.5,47.8,30.04,NE,34,0.0,1.0,94,0.00,,,0.00,Wunderground v.1.15,2013-10-10 09:51:00,
2013-10-10 05:56:00,49.5,47.8,30.04,NE,34,0.0,1.0,94,0.00,,,0.00,Wunderground v.1.15,2013-10-10 09:56:00,
2013-10-10 06:00:00,77.3,58.8,29.85,NNE,22,1.0,9.0,53,0.00,,,-99.99,WeatherLink 6.0.3,2013-10-10 10:00:00,
2013-10-10 06:01:00,49.4,47.7,30.04,NNE,27,0.0,0.0,94,0.00,,,0.00,Wunderground v.1.15,2013-10-10 10:01:00,
2013-10-10 06:06:00,49.3,47.6,30.04,NNE,17,0.0,1.0,94,0.00,,,0.00,Wunderground v.1.15,2013-10-10 10:06:00,
2013-10-10 06:11:00,49.2,47.5,30.04,NNE,18,0.0,1.0,94,0.00,,,0.00,Wunderground v.1.15,2013-10-10 10:11:00,
2013-10-10 06:16:00,49.0,47.3,30.04,NW,325,0.0,2.0,94,0.00,,,0.00,Wunderground v.1.15,2013-10-10 10:16:00,
2013-10-10 06:21:00,48.9,47.2,30.04,NW,319,1.0,1.0,94,0.00,,,0.00,Wunderground v.1.15,2013-10-10 10:21:00,
2013-10-10 06:26:00,48.8,47.2,30.05,NNE,29,0.0,2.0,94,0.00,,,0.00,Wunderground v.1.15,2013-10-10 10:26:00,
2013-10-10 06:30:00,77.2,57.7,29.85,NW,315,1.0,6.0,51,0.00,,,-99.99,WeatherLink 6.0.3,2013-10-10 10:30:00,
2013-10-10 06:31:00,48.7,47.1,30.05,NNE,29,0.0,2.0,94,0.00,,,0.00,Wunderground v.1.15,2013-10-10 10:31:00,
2013-10-10 06:36:00,48.7,47.3,30.05,NNE,29,0.0,2.0,95,0.00,,,0.00,Wunderground v.1.15,2013-10-10 10:36:00,
2013-10-10 06:41:00,48.7,47.3,30.05,NNE,29,0.0,0.0,95,0.00,,,0.00,Wunderground v.1.15,2013-10-10 10:41:00,
2013-10-10 06:46:00,48.7,47.3,30.05,NNE,29,0.0,1.0,95,0.00,,,0.00,Wunderground v.1.15,2013-10-10 10:46:00,
2013-10-10 06:51:00,48.8,47.4,30.05,NNE,29,0.0,0.0,95,0.00,,,0.00,Wunderground v.1.15,2013-10-10 10:51:00,
2013-10-10 06:56:00,48.6,47.0,30.05,NNE,29,0.0,0.0,94,0.00,,,0.00,Wunderground v.1.15,2013-10-10 10:56:00,
2013-10-10 07:00:00,77.3,57.8,29.85,WNW,292,1.0,7.0,51,0.00,,,-99.99,WeatherLink 6.0.3,2013-10-10 11:00:00,
2013-10-10 07:01:00,48.5,46.9,30.05,NNE,29,0.0,0.0,94,0.00,,,0.00,Wunderground v.1.15,2013-10-10 11:01:00,
2013-10-10 07:06:00,48.3,46.7,30.06,NNE,29,0.0,0.0,94,0.00,,,0.00,Wunderground v.1.15,2013-10-10 11:06:00,
2013-10-10 07:11:00,48.1,46.5,30.06,NNE,29,0.0,0.0,94,0.00,,,0.00,Wunderground v.1.15,2013-10-10 11:11:00,
2013-10-10 07:16:00,47.9,46.3,30.05,NNE,29,0.0,0.0,94,0.00,,,0.00,Wunderground v.1.15,2013-10-10 11:16:00,
2013-10-10 07:21:00,47.8,46.2,30.05,NNE,29,0.0,0.0,94,0.00,,,0.00,Wunderground v.1.15,2013-10-10 11:21:00,
2013-10-10 07:26:00,47.9,46.5,30.06,NNE,29,0.0,0.0,95,0.00,,,0.00,Wunderground v.1.15,2013-10-10 11:26:00,
2013-10-10 07:30:00,76.9,56.8,29.86,NNE,22,1.0,11.0,50,0.00,,,-99.99,WeatherLink 6.0.3,2013-10-10 11:30:00,
2013-10-10 07:31:00,47.8,46.4,30.06,NNE,29,0.0,0.0,95,0.00,,,0.00,Wunderground v.1.15,2013-10-10 11:31:00,
2013-10-10 07:36:00,47.5,46.1,30.06,NNE,29,0.0,0.0,95,0.00,,,0.00,Wunderground v.1.15,2013-10-10 11:36:00,
2013-10-10 07:41:00,47.4,46.0,30.06,NNE,29,0.0,0.0,95,0.00,,,0.00,Wunderground v.1.15,2013-10-10 11:41:00,
2013-10-10 07:46:00,47.4,46.0,30.06,NNE,29,0.0,2.0,95,0.00,,,0.00,Wunderground v.1.15,2013-10-10 11:46:00,
2013-10-10 07:51:00,47.4,46.0,30.06,ENE,78,0.0,1.0,95,0.00,,,0.00,Wunderground v.1.15,2013-10-10 11:51:00,
2013-10-10 07:56:00,47.6,46.2,30.05,ENE,78,0.0,1.0,95,0.00,,,0.00,Wunderground v.1.15,2013-10-10 11:56:00,
2013-10-10 08:00:00,74.9,56.1,29.87,NNE,22,1.0,10.0,52,0.00,,,-99.99,WeatherLink 6.0.3,2013-10-10 12:00:00,
2013-10-10 08:01:00,48.0,46.9,30.06,ENE,78,0.0,0.0,96,0.00,,,0.00,Wunderground v.1.15,2013-10-10 12:01:00,
2013-10-10 08:06:00,48.2,46.8,30.06,ENE,78,0.0,0.0,95,0.00,,,0.00,Wunderground v.1.15,2013-10-10 12:06:00,
2013-10-10 08:11:00,48.3,46.9,30.06,ENE,75,0.0,0.0,95,0.00,,,0.00,Wunderground v.1.15,2013-10-10 12:11:00,
2013-10-10 08:16:00,48.8,47.4,30.06,ENE,75,0.0,0.0,95,0.00,,,0.00,Wunderground v.1.15,2013-10-10 12:16:00,
2013-10-10 08:21:00,49.3,47.9,30.06,ENE,75,0.0,2.0,95,0.00,,,0.00,Wunderground v.1.15,2013-10-10 12:21:00,
2013-10-10 08:26:00,49.5,47.8,30.06,ENE,75,0.0,2.0,94,0.00,,,0.00,Wunderground v.1.15,2013-10-10 12:26:00,
2013-10-10 08:30:00,72.7,56.6,29.88,NE,45,0.0,3.0,57,0.00,,,-99.99,WeatherLink 6.0.3,2013-10-10 12:30:00,
2013-10-10 08:31:00,49.6,47.9,30.06,North,355,0.0,1.0,94,0.00,,,0.00,Wunderground v.1.15,2013-10-10 12:31:00,
2013-10-10 08:36:00,49.9,48.2,30.06,North,350,0.0,1.0,94,0.00,,,0.00,Wunderground v.1.15,2013-10-10 12:36:00,
2013-10-10 08:41:00,50.3,48.6,30.06,NNW,342,0.0,2.0,94,0.00,,,0.00,Wunderground v.1.15,2013-10-10 12:41:00,
2013-10-10 08:46:00,50.7,48.7,30.06,NNW,342,0.0,2.0,93,0.00,,,0.00,Wunderground v.1.15,2013-10-10 12:46:00,
2013-10-10 08:52:00,51.3,49.1,30.06,NNE,30,0.0,1.0,92,0.00,,,0.00,Wunderground v.1.15,2013-10-10 12:52:00,
2013-10-10 08:57:00,51.8,49.5,30.06,NNE,29,0.0,1.0,92,0.00,,,0.00,Wunderground v.1.15,2013-10-10 12:57:00,
2013-10-10 09:00:00,71.0,56.4,29.89,NE,45,0.0,1.0,60,0.00,,,-99.99,WeatherLink 6.0.3,2013-10-10 13:00:00,
2013-10-10 09:02:00,52.5,49.9,30.06,NNE,30,0.0,0.0,91,0.00,,,0.00,Wunderground v.1.15,2013-10-10 13:02:00,
2013-10-10 09:07:00,52.9,50.0,30.06,NNE,29,0.0,1.0,90,0.00,,,0.00,Wunderground v.1.15,2013-10-10 13:07:00,
2013-10-10 09:12:00,53.4,50.2,30.06,NNE,30,0.0,2.0,89,0.00,,,0.00,Wunderground v.1.15,2013-10-10 13:12:00,
2013-10-10 09:17:00,53.8,50.3,30.06,NNE,29,0.0,2.0,88,0.00,,,0.00,Wunderground v.1.15,2013-10-10 13:17:00,
2013-10-10 09:22:00,54.4,50.9,30.06,NNE,30,0.0,0.0,88,0.00,,,0.00,Wunderground v.1.15,2013-10-10 13:22:00,
2013-10-10 09:27:00,54.8,51.0,30.06,NNE,30,0.0,1.0,87,0.00,,,0.00,Wunderground v.1.15,2013-10-10 13:27:00,
2013-10-10 09:30:00,68.8,56.6,29.89,NE,45,0.0,1.0,65,0.00,,,-99.99,WeatherLink 6.0.3,2013-10-10 13:30:00,
2013-10-10 09:32:00,55.5,51.4,30.06,NNE,30,0.0,1.0,86,0.00,,,0.00,Wunderground v.1.15,2013-10-10 13:32:00,
2013-10-10 09:37:00,56.0,51.6,30.06,NNE,30,0.0,1.0,85,0.00,,,0.00,Wunderground v.1.15,2013-10-10 13:37:00,
2013-10-10 09:42:00,56.4,51.6,30.06,NNE,30,0.0,1.0,84,0.00,,,0.00,Wunderground v.1.15,2013-10-10 13:42:00,
2013-10-10 09:47:00,56.9,52.1,30.05,NNE,30,2.0,2.0,84,0.00,,,0.00,Wunderground v.1.15,2013-10-10 13:47:00,
2013-10-10 09:52:00,57.3,52.2,30.05,NNE,29,0.0,0.0,83,0.00,,,0.00,Wunderground v.1.15,2013-10-10 13:52:00,
2013-10-10 09:57:00,58.0,52.9,30.05,NNE,29,0.0,1.0,83,0.00,,,0.00,Wunderground v.1.15,2013-10-10 13:57:00,
2013-10-10 10:00:00,66.8,55.9,29.90,North,-999,0.0,0.0,68,0.00,,,-99.99,WeatherLink 6.0.3,2013-10-10 14:00:00,
2013-10-10 10:02:00,58.6,53.1,30.05,NNE,30,0.0,0.0,82,0.00,,,0.00,Wunderground v.1.15,2013-10-10 14:02:00,
2013-10-10 10:07:00,59.0,53.2,30.05,NNE,30,0.0,1.0,81,0.00,,,0.00,Wunderground v.1.15,2013-10-10 14:07:00,
2013-10-10 10:12:00,59.1,52.9,30.05,NNE,30,0.0,0.0,80,0.00,,,0.00,Wunderground v.1.15,2013-10-10 14:12:00,
2013-10-10 10:17:00,59.7,52.5,30.05,NNE,30,0.0,2.0,77,0.00,,,0.00,Wunderground v.1.15,2013-10-10 14:17:00,
2013-10-10 10:22:00,60.2,53.3,30.05,NNE,30,0.0,0.0,78,0.00,,,0.00,Wunderground v.1.15,2013-10-10 14:22:00,
2013-10-10 10:27:00,60.9,53.6,30.05,NNE,29,0.0,0.0,77,0.00,,,0.00,Wunderground v.1.15,2013-10-10 14:27:00,
2013-10-10 10:30:00,66.9,55.6,29.90,North,-999,0.0,0.0,67,0.00,,,-99.99,WeatherLink 6.0.3,2013-10-10 14:30:00,
2013-10-10 10:32:00,61.5,53.1,30.05,NNE,29,0.0,2.0,74,0.00,,,0.00,Wunderground v.1.15,2013-10-10 14:32:00,
2013-10-10 10:37:00,62.2,54.5,30.05,NNE,30,0.0,2.0,76,0.00,,,0.00,Wunderground v.1.15,2013-10-10 14:37:00,
2013-10-10 10:42:00,63.1,54.7,30.05,NNE,30,0.0,1.0,74,0.00,,,0.00,Wunderground v.1.15,2013-10-10 14:42:00,
2013-10-10 10:47:00,63.6,53.2,30.04,NNE,29,0.0,1.0,69,0.00,,,0.00,Wunderground v.1.15,2013-10-10 14:47:00,
2013-10-10 10:52:00,64.5,54.5,30.04,NNE,29,0.0,0.0,70,0.00,,,0.00,Wunderground v.1.15,2013-10-10 14:52:00,
2013-10-10 10:57:00,65.7,53.2,30.04,NE,53,0.0,2.0,64,0.00,,,0.00,Wunderground v.1.15,2013-10-10 14:57:00,
2013-10-10 11:00:00,66.7,55.0,29.91,North,-999,0.0,0.0,66,0.00,,,-99.99,WeatherLink 6.0.3,2013-10-10 15:00:00,
2013-10-10 11:02:00,66.1,54.0,30.04,NE,53,0.0,1.0,65,0.00,,,0.00,Wunderground v.1.15,2013-10-10 15:02:00,
2013-10-10 11:07:00,66.4,54.3,30.04,NE,55,0.0,1.0,65,0.00,,,0.00,Wunderground v.1.15,2013-10-10 15:07:00,
2013-10-10 11:13:00,67.4,54.8,30.04,ENE,59,0.0,0.0,64,0.00,,,0.00,Wunderground v.1.15,2013-10-10 15:13:00,
2013-10-10 11:18:00,67.8,54.3,30.04,ENE,59,0.0,1.0,62,0.00,,,0.00,Wunderground v.1.15,2013-10-10 15:18:00,
2013-10-10 11:23:00,68.5,54.5,30.03,ENE,59,0.0,1.0,61,0.00,,,0.00,Wunderground v.1.15,2013-10-10 15:23:00,
2013-10-10 11:28:00,70.1,54.6,30.03,ENE,69,0.0,3.0,58,0.00,,,0.00,Wunderground v.1.15,2013-10-10 15:28:00,
2013-10-10 11:30:00,67.0,55.3,29.91,North,-999,0.0,0.0,66,0.00,,,-99.99,WeatherLink 6.0.3,2013-10-10 15:30:00,
2013-10-10 11:33:00,70.6,52.1,30.03,NNE,26,0.0,4.0,52,0.00,,,0.00,Wunderground v.1.15,2013-10-10 15:33:00,
2013-10-10 11:38:00,69.9,52.5,30.03,NNW,335,0.0,4.0,54,0.00,,,0.00,Wunderground v.1.15,2013-10-10 15:38:00,
2013-10-10 11:43:00,70.1,54.6,30.03,NNW,337,0.0,1.0,58,0.00,,,0.00,Wunderground v.1.15,2013-10-10 15:43:00,
2013-10-10 11:48:00,71.2,52.7,30.03,NE,46,0.0,3.0,52,0.00,,,0.00,Wunderground v.1.15,2013-10-10 15:48:00,
2013-10-10 11:53:00,72.4,55.3,30.02,ESE,121,1.0,4.0,55,0.00,,,0.00,Wunderground v.1.15,2013-10-10 15:53:00,
2013-10-10 11:58:00,73.0,53.8,30.02,NE,50,0.0,4.0,51,0.00,,,0.00,Wunderground v.1.15,2013-10-10 15:58:00,
2013-10-10 12:00:00,67.0,55.7,29.91,North,-999,0.0,0.0,67,0.00,,,-99.99,WeatherLink 6.0.3,2013-10-10 16:00:00,
2013-10-10 12:03:00,72.8,54.1,30.02,NE,49,0.0,1.0,52,0.00,,,0.00,Wunderground v.1.15,2013-10-10 16:03:00,
2013-10-10 12:08:00,72.2,54.6,30.01,NE,49,0.0,1.0,54,0.00,,,0.00,Wunderground v.1.15,2013-10-10 16:08:00,
2013-10-10 12:13:00,71.6,54.1,30.01,NE,49,0.0,1.0,54,0.00,,,0.00,Wunderground v.1.15,2013-10-10 16:13:00,
2013-10-10 12:18:00,72.2,54.6,30.01,ESE,113,0.0,4.0,54,0.00,,,0.00,Wunderground v.1.15,2013-10-10 16:18:00,
2013-10-10 12:23:00,73.2,55.6,30.01,ESE,111,2.0,3.0,54,0.00,,,0.00,Wunderground v.1.15,2013-10-10 16:23:00,
2013-10-10 12:28:00,74.4,57.2,30.01,ESE,107,0.0,4.0,55,0.00,,,0.00,Wunderground v.1.15,2013-10-10 16:28:00,
2013-10-10 12:30:00,66.4,55.5,29.91,North,-999,0.0,0.0,68,0.00,,,-99.99,WeatherLink 6.0.3,2013-10-10 16:30:00,
2013-10-10 12:33:00,75.1,55.7,30.01,ENE,78,0.0,2.0,51,0.00,,,0.00,Wunderground v.1.15,2013-10-10 16:33:00,
2013-10-10 12:38:00,75.6,55.6,30.00,ENE,67,1.0,7.0,50,0.00,,,0.00,Wunderground v.1.15,2013-10-10 16:38:00,
2013-10-10 12:43:00,75.3,56.5,30.00,ESE,103,2.0,3.0,52,0.00,,,0.00,Wunderground v.1.15,2013-10-10 16:43:00,
2013-10-10 12:48:00,74.9,56.6,30.00,NE,37,0.0,3.0,53,0.00,,,0.00,Wunderground v.1.15,2013-10-10 16:48:00,
2013-10-10 12:53:00,73.6,55.9,30.00,West,270,2.0,5.0,54,0.00,,,0.00,Wunderground v.1.15,2013-10-10 16:53:00,
2013-10-10 12:58:00,72.7,56.6,30.00,West,272,1.0,5.0,57,0.00,,,0.00,Wunderground v.1.15,2013-10-10 16:58:00,
2013-10-10 13:00:00,66.0,54.3,29.91,North,-999,0.0,0.0,66,0.00,,,-99.99,WeatherLink 6.0.3,2013-10-10 17:00:00,
2013-10-10 13:03:00,73.0,55.4,30.00,NE,38,0.0,4.0,54,0.00,,,0.00,Wunderground v.1.15,2013-10-10 17:03:00,
2013-10-10 13:08:00,73.9,56.2,30.00,East,90,0.0,5.0,54,0.00,,,0.00,Wunderground v.1.15,2013-10-10 17:08:00,
2013-10-10 13:13:00,74.4,56.7,29.99,NE,52,1.0,3.0,54,0.00,,,0.00,Wunderground v.1.15,2013-10-10 17:13:00,
2013-10-10 13:18:00,75.0,57.7,29.99,ENE,68,0.0,3.0,55,0.00,,,0.00,Wunderground v.1.15,2013-10-10 17:18:00,
2013-10-10 13:23:00,75.8,57.4,29.99,ENE,67,0.0,1.0,53,0.00,,,0.00,Wunderground v.1.15,2013-10-10 17:23:00,
2013-10-10 13:28:00,76.2,57.3,29.99,North,355,1.0,5.0,52,0.00,,,0.00,Wunderground v.1.15,2013-10-10 17:28:00,
2013-10-10 13:30:00,65.9,54.6,29.90,North,-999,0.0,0.0,67,0.00,,,-99.99,WeatherLink 6.0.3,2013-10-10 17:30:00,
2013-10-10 13:33:00,75.6,57.8,29.99,NW,323,2.0,4.0,54,0.00,,,0.00,Wunderground v.1.15,2013-10-10 17:33:00,
2013-10-10 13:38:00,74.8,58.1,29.99,NNE,17,0.0,4.0,56,0.00,,,0.00,Wunderground v.1.15,2013-10-10 17:38:00,
2013-10-10 13:43:00,75.0,58.2,29.99,NNE,29,2.0,6.0,56,0.00,,,0.00,Wunderground v.1.15,2013-10-10 17:43:00,
2013-10-10 13:48:00,75.4,58.6,29.98,NE,38,0.0,6.0,56,0.00,,,0.00,Wunderground v.1.15,2013-10-10 17:48:00,
2013-10-10 13:53:00,76.0,59.7,29.98,East,80,0.0,2.0,57,0.00,,,0.00,Wunderground v.1.15,2013-10-10 17:53:00,
2013-10-10 13:58:00,76.2,59.4,29.98,North,360,0.0,3.0,56,0.00,,,0.00,Wunderground v.1.15,2013-10-10 17:58:00,
2013-10-10 14:00:00,65.2,54.4,29.90,NE,45,0.0,2.0,68,0.00,,,-99.99,WeatherLink 6.0.3,2013-10-10 18:00:00,
2013-10-10 14:04:00,76.0,59.7,29.98,NNE,28,0.0,3.0,57,0.00,,,0.00,Wunderground v.1.15,2013-10-10 18:04:00,
2013-10-10 14:09:00,75.9,61.0,29.97,NNW,342,0.0,3.0,60,0.00,,,0.00,Wunderground v.1.15,2013-10-10 18:09:00,
2013-10-10 14:14:00,75.9,61.0,29.97,NW,321,0.0,4.0,60,0.00,,,0.00,Wunderground v.1.15,2013-10-10 18:14:00,
2013-10-10 14:19:00,75.8,60.4,29.97,North,355,1.0,5.0,59,0.00,,,0.00,Wunderground v.1.15,2013-10-10 18:19:00,
2013-10-10 14:24:00,75.3,60.9,29.97,NNE,15,0.0,5.0,61,0.00,,,0.00,Wunderground v.1.15,2013-10-10 18:24:00,
2013-10-10 14:29:00,75.2,60.8,29.97,NNW,342,0.0,5.0,61,0.00,,,0.00,Wunderground v.1.15,2013-10-10 18:29:00,
2013-10-10 14:30:00,65.2,54.4,29.90,NE,45,0.0,2.0,68,0.00,,,-99.99,WeatherLink 6.0.3,2013-10-10 18:30:00,
2013-10-10 14:34:00,74.8,60.9,29.97,North,355,2.0,3.0,62,0.00,,,0.00,Wunderground v.1.15,2013-10-10 18:34:00,
2013-10-10 14:39:00,74.8,60.9,29.97,North,355,0.0,5.0,62,0.00,,,0.00,Wunderground v.1.15,2013-10-10 18:39:00,
2013-10-10 14:44:00,74.8,61.4,29.97,East,96,0.0,6.0,63,0.00,,,0.00,Wunderground v.1.15,2013-10-10 18:44:00,
2013-10-10 14:49:00,74.9,61.5,29.97,North,5,0.0,6.0,63,0.00,,,0.00,Wunderground v.1.15,2013-10-10 18:49:00,
2013-10-10 14:54:00,74.5,61.5,29.97,NNE,30,0.0,4.0,64,0.00,,,0.00,Wunderground v.1.15,2013-10-10 18:54:00,
2013-10-10 14:59:00,74.0,61.9,29.97,NNE,28,0.0,4.0,66,0.00,,,0.00,Wunderground v.1.15,2013-10-10 18:59:00,
2013-10-10 15:00:00,63.4,54.6,29.90,North,-999,0.0,0.0,73,0.00,,,-99.99,WeatherLink 6.0.3,2013-10-10 19:00:00,
2013-10-10 15:04:00,74.0,61.9,29.97,NNE,29,0.0,3.0,66,0.00,,,0.00,Wunderground v.1.15,2013-10-10 19:04:00,
2013-10-10 15:09:00,74.0,62.3,29.97,NNE,23,0.0,4.0,67,0.00,,,0.00,Wunderground v.1.15,2013-10-10 19:09:00,
2013-10-10 15:14:00,74.4,63.1,29.97,West,277,1.0,1.0,68,0.00,,,0.00,Wunderground v.1.15,2013-10-10 19:14:00,
2013-10-10 15:19:00,74.6,62.1,29.97,North,5,0.0,3.0,65,0.00,,,0.00,Wunderground v.1.15,2013-10-10 19:19:00,
2013-10-10 15:24:00,74.8,62.2,29.97,NNE,22,0.0,2.0,65,0.00,,,0.00,Wunderground v.1.15,2013-10-10 19:24:00,
2013-10-10 15:29:00,74.8,61.8,29.97,North,355,2.0,7.0,64,0.00,,,0.00,Wunderground v.1.15,2013-10-10 19:29:00,
2013-10-10 15:30:00,62.9,54.5,29.90,North,-999,0.0,0.0,74,0.00,,,-99.99,WeatherLink 6.0.3,2013-10-10 19:30:00,
2013-10-10 15:34:00,74.0,61.9,29.97,NNE,20,0.0,7.0,66,0.00,,,0.00,Wunderground v.1.15,2013-10-10 19:34:00,
2013-10-10 15:39:00,73.7,62.1,29.96,NNE,20,0.0,7.0,67,0.00,,,0.00,Wunderground v.1.15,2013-10-10 19:39:00,
2013-10-10 15:44:00,73.4,61.8,29.96,NE,44,0.0,5.0,67,0.00,,,0.00,Wunderground v.1.15,2013-10-10 19:44:00,
2013-10-10 15:50:00,73.5,62.3,29.96,NNE,21,0.0,1.0,68,0.00,,,0.00,Wunderground v.1.15,2013-10-10 19:50:00,
2013-10-10 15:55:00,73.7,62.1,29.96,NW,306,0.0,4.0,67,0.00,,,0.00,Wunderground v.1.15,2013-10-10 19:55:00,
2013-10-10 16:00:00,74.1,62.9,29.96,NE,44,1.0,1.0,68,0.00,,,0.00,Wunderground v.1.15,2013-10-10 20:00:00,
2013-10-10 16:05:00,74.5,62.4,29.96,NE,51,0.0,3.0,66,0.00,,,0.00,Wunderground v.1.15,2013-10-10 20:05:00,
2013-10-10 16:10:00,74.9,62.8,29.96,ESE,115,0.0,0.0,66,0.00,,,0.00,Wunderground v.1.15,2013-10-10 20:10:00,
2013-10-10 16:15:00,75.1,62.5,29.96,NNE,19,2.0,5.0,65,0.00,,,0.00,Wunderground v.1.15,2013-10-10 20:15:00,
2013-10-10 16:20:00,74.8,62.7,29.95,North,355,0.0,1.0,66,0.00,,,0.00,Wunderground v.1.15,2013-10-10 20:20:00,
2013-10-10 16:25:00,74.8,63.1,29.95,North,355,0.0,1.0,67,0.00,,,0.00,Wunderground v.1.15,2013-10-10 20:25:00,
2013-10-10 16:30:00,74.6,62.1,29.95,NNE,17,1.0,3.0,65,0.00,,,0.00,Wunderground v.1.15,2013-10-10 20:30:00,
2013-10-10 16:31:00,74.5,62.0,29.95,NNE,17,0.0,3.0,65,0.00,,,0.00,Wunderground v.1.15,2013-10-10 20:31:00,
2013-10-10 16:36:00,74.2,62.5,29.95,NNE,17,0.0,3.0,67,0.00,,,0.00,Wunderground v.1.15,2013-10-10 20:36:00,
2013-10-10 16:41:00,74.3,63.1,29.95,North,360,0.0,1.0,68,0.00,,,0.00,Wunderground v.1.15,2013-10-10 20:41:00,
2013-10-10 16:46:00,74.2,62.5,29.95,NW,316,0.0,3.0,67,0.00,,,0.00,Wunderground v.1.15,2013-10-10 20:46:00,
2013-10-10 16:51:00,73.8,62.6,29.95,NNE,13,1.0,2.0,68,0.00,,,0.00,Wunderground v.1.15,2013-10-10 20:51:00,
2013-10-10 16:56:00,73.8,62.2,29.95,NNE,15,0.0,4.0,67,0.00,,,0.00,Wunderground v.1.15,2013-10-10 20:56:00,
2013-10-10 17:00:00,60.0,54.5,29.90,North,-999,0.0,0.0,82,0.00,,,-99.99,WeatherLink 6.0.3,2013-10-10 21:00:00,
2013-10-10 17:01:00,73.9,62.2,29.94,North,355,0.0,1.0,67,0.00,,,0.00,Wunderground v.1.15,2013-10-10 21:01:00,
2013-10-10 17:06:00,74.0,62.3,29.94,North,9,0.0,1.0,67,0.00,,,0.00,Wunderground v.1.15,2013-10-10 21:06:00,
2013-10-10 17:11:00,74.1,62.9,29.94,NNW,340,3.0,4.0,68,0.00,,,0.00,Wunderground v.1.15,2013-10-10 21:11:00,
2013-10-10 17:16:00,73.9,62.7,29.94,NNE,20,0.0,4.0,68,0.00,,,0.00,Wunderground v.1.15,2013-10-10 21:16:00,
2013-10-10 17:21:00,73.6,62.8,29.94,NNE,20,0.0,2.0,69,0.00,,,0.00,Wunderground v.1.15,2013-10-10 21:21:00,
2013-10-10 17:26:00,73.3,62.9,29.94,NNE,19,0.0,2.0,70,0.00,,,0.00,Wunderground v.1.15,2013-10-10 21:26:00,
2013-10-10 17:30:00,58.4,54.2,29.91,North,-999,0.0,0.0,86,0.00,,,-99.99,WeatherLink 6.0.3,2013-10-10 21:30:00,
2013-10-10 17:31:00,73.0,62.6,29.94,NNE,26,0.0,0.0,70,0.00,,,0.00,Wunderground v.1.15,2013-10-10 21:31:00,
2013-10-10 17:36:00,72.7,62.8,29.94,NNE,24,0.0,3.0,71,0.00,,,0.00,Wunderground v.1.15,2013-10-10 21:36:00,
2013-10-10 17:41:00,72.6,62.7,29.95,NNE,24,0.0,0.0,71,0.00,,,0.00,Wunderground v.1.15,2013-10-10 21:41:00,
2013-10-10 17:46:00,72.4,62.9,29.95,NNE,24,0.0,1.0,72,0.00,,,0.00,Wunderground v.1.15,2013-10-10 21:46:00,
2013-10-10 17:51:00,72.3,62.8,29.94,NNE,24,0.0,3.0,72,0.00,,,0.00,Wunderground v.1.15,2013-10-10 21:51:00,
2013-10-10 17:56:00,72.0,62.5,29.95,NNE,28,2.0,3.0,72,0.00,,,0.00,Wunderground v.1.15,2013-10-10 21:56:00,
2013-10-10 18:00:00,57.7,54.2,29.92,North,-999,0.0,0.0,88,0.00,,,-99.99,WeatherLink 6.0.3,2013-10-10 22:00:00,
2013-10-10 18:01:00,71.7,62.6,29.95,NNE,26,1.0,1.0,73,0.00,,,0.00,Wunderground v.1.15,2013-10-10 22:01:00,
2013-10-10 18:06:00,71.5,62.8,29.94,NNE,28,1.0,1.0,74,0.00,,,0.00,Wunderground v.1.15,2013-10-10 22:06:00,
2013-10-10 18:11:00,71.3,62.2,29.95,NE,34,0.0,2.0,73,0.00,,,0.00,Wunderground v.1.15,2013-10-10 22:11:00,
2013-10-10 18:16:00,71.2,62.5,29.95,NE,34,0.0,2.0,74,0.00,,,0.00,Wunderground v.1.15,2013-10-10 22:16:00,
2013-10-10 18:22:00,71.0,61.9,29.95,NNE,22,0.0,2.0,73,0.00,,,0.00,Wunderground v.1.15,2013-10-10 22:22:00,
2013-10-10 18:26:00,70.9,61.8,29.95,NNE,19,0.0,4.0,73,0.00,,,0.00,Wunderground v.1.15,2013-10-10 22:26:00,
2013-10-10 18:30:00,58.1,54.9,29.92,North,-999,0.0,0.0,89,0.00,,,-99.99,WeatherLink 6.0.3,2013-10-10 22:30:00,
2013-10-10 18:32:00,70.8,62.1,29.95,NNE,21,0.0,1.0,74,0.00,,,0.00,Wunderground v.1.15,2013-10-10 22:32:00,
2013-10-10 18:37:00,70.7,61.2,29.95,NNE,21,0.0,4.0,72,0.00,,,0.00,Wunderground v.1.15,2013-10-10 22:37:00,
2013-10-10 18:42:00,70.5,61.0,29.95,NNE,19,0.0,0.0,72,0.00,,,0.00,Wunderground v.1.15,2013-10-10 22:42:00,
2013-10-10 18:47:00,70.3,60.1,29.95,NW,323,0.0,3.0,70,0.00,,,0.00,Wunderground v.1.15,2013-10-10 22:47:00,
2013-10-10 18:52:00,70.1,59.9,29.95,NNE,24,0.0,3.0,70,0.00,,,0.00,Wunderground v.1.15,2013-10-10 22:52:00,
2013-10-10 18:57:00,69.7,59.9,29.95,NNE,17,0.0,4.0,71,0.00,,,0.00,Wunderground v.1.15,2013-10-10 22:57:00,
2013-10-10 19:00:00,58.9,56.0,29.92,North,-999,0.0,0.0,90,0.00,,,-99.99,WeatherLink 6.0.3,2013-10-10 23:00:00,
2013-10-10 19:02:00,69.3,59.5,29.95,NNE,17,0.0,0.0,71,0.00,,,0.00,Wunderground v.1.15,2013-10-10 23:02:00,
2013-10-10 19:07:00,69.0,60.0,29.95,NNE,17,1.0,1.0,73,0.00,,,0.00,Wunderground v.1.15,2013-10-10 23:07:00,
2013-10-10 19:12:00,68.7,60.1,29.95,NNE,17,0.0,0.0,74,0.00,,,0.00,Wunderground v.1.15,2013-10-10 23:12:00,
2013-10-10 19:17:00,68.3,59.7,29.96,NNE,17,0.0,1.0,74,0.00,,,0.00,Wunderground v.1.15,2013-10-10 23:17:00,
2013-10-10 19:22:00,68.0,59.8,29.96,NNE,17,0.0,0.0,75,0.00,,,0.00,Wunderground v.1.15,2013-10-10 23:22:00,
2013-10-10 19:27:00,67.7,59.9,29.96,NNE,18,0.0,1.0,76,0.00,,,0.00,Wunderground v.1.15,2013-10-10 23:27:00,
2013-10-10 19:30:00,59.0,56.1,29.93,North,-999,0.0,0.0,90,0.00,,,-99.99,WeatherLink 6.0.3,2013-10-10 23:30:00,
2013-10-10 19:32:00,67.4,59.9,29.96,NNE,18,0.0,0.0,77,0.00,,,0.00,Wunderground v.1.15,2013-10-10 23:32:00,
2013-10-10 19:37:00,67.1,60.0,29.96,NNE,18,0.0,0.0,78,0.00,,,0.00,Wunderground v.1.15,2013-10-10 23:37:00,
2013-10-10 19:42:00,66.8,59.7,29.96,NNE,18,0.0,0.0,78,0.00,,,0.00,Wunderground v.1.15,2013-10-10 23:42:00,
2013-10-10 19:47:00,66.7,59.6,29.96,NNE,18,0.0,0.0,78,0.00,,,0.00,Wunderground v.1.15,2013-10-10 23:47:00,
2013-10-10 19:52:00,66.4,59.3,29.96,NNE,18,0.0,0.0,78,0.00,,,0.00,Wunderground v.1.15,2013-10-10 23:52:00,
2013-10-10 19:57:00,66.1,59.4,29.96,NNE,18,0.0,0.0,79,0.00,,,0.00,Wunderground v.1.15,2013-10-10 23:57:00,
2013-10-10 20:00:00,59.0,56.1,29.94,North,-999,0.0,0.0,90,0.00,,,-99.99,WeatherLink 6.0.3,2013-10-11 00:00:00,
2013-10-10 20:02:00,65.7,59.0,29.96,NNE,18,0.0,0.0,79,0.00,,,0.00,Wunderground v.1.15,2013-10-11 00:02:00,
2013-10-10 20:07:00,65.4,59.1,29.96,NNE,18,0.0,0.0,80,0.00,,,0.00,Wunderground v.1.15,2013-10-11 00:07:00,
2013-10-10 20:12:00,65.0,58.7,29.97,NNE,18,0.0,0.0,80,0.00,,,0.00,Wunderground v.1.15,2013-10-11 00:12:00,
2013-10-10 20:17:00,64.7,58.7,29.96,NNE,18,0.0,0.0,81,0.00,,,0.00,Wunderground v.1.15,2013-10-11 00:17:00,
2013-10-10 20:22:00,64.5,58.2,29.96,NNE,18,0.0,0.0,80,0.00,,,0.00,Wunderground v.1.15,2013-10-11 00:22:00,
2013-10-10 20:27:00,64.2,58.2,29.96,NNE,18,0.0,0.0,81,0.00,,,0.00,Wunderground v.1.15,2013-10-11 00:27:00,
2013-10-10 20:30:00,59.0,56.4,29.95,North,-999,0.0,0.0,91,0.00,,,-99.99,WeatherLink 6.0.3,2013-10-11 00:30:00,
2013-10-10 20:32:00,63.9,58.0,29.95,NNE,18,0.0,0.0,81,0.00,,,0.00,Wunderground v.1.15,2013-10-11 00:32:00,
2013-10-10 20:37:00,63.7,57.8,29.95,NNE,18,0.0,0.0,81,0.00,,,0.00,Wunderground v.1.15,2013-10-11 00:37:00,
2013-10-10 20:42:00,63.5,57.6,29.95,NNE,18,0.0,0.0,81,0.00,,,0.00,Wunderground v.1.15,2013-10-11 00:42:00,
2013-10-10 20:47:00,63.3,57.4,29.95,NNE,18,0.0,0.0,81,0.00,,,0.00,Wunderground v.1.15,2013-10-11 00:47:00,
2013-10-10 20:52:00,63.1,57.2,29.95,NNE,18,0.0,0.0,81,0.00,,,0.00,Wunderground v.1.15,2013-10-11 00:52:00,
2013-10-10 20:57:00,63.0,57.1,29.96,NNE,18,0.0,0.0,81,0.00,,,0.00,Wunderground v.1.15,2013-10-11 00:57:00,
2013-10-10 21:00:00,59.4,56.8,29.96,North,-999,0.0,0.0,91,0.00,,,-99.99,WeatherLink 6.0.3,2013-10-11 01:00:00,
2013-10-10 21:03:00,62.9,57.0,29.96,NNE,18,0.0,0.0,81,0.00,,,0.00,Wunderground v.1.15,2013-10-11 01:03:00,
2013-10-10 21:08:00,62.9,56.6,29.96,NNE,18,0.0,0.0,80,0.00,,,0.00,Wunderground v.1.15,2013-10-11 01:08:00,
2013-10-10 21:13:00,63.2,56.9,29.96,NNE,18,0.0,0.0,80,0.00,,,0.00,Wunderground v.1.15,2013-10-11 01:13:00,
2013-10-10 21:18:00,63.4,56.8,29.96,NNE,18,0.0,0.0,79,0.00,,,0.00,Wunderground v.1.15,2013-10-11 01:18:00,
2013-10-10 21:23:00,63.5,56.9,29.96,NNE,18,0.0,0.0,79,0.00,,,0.00,Wunderground v.1.15,2013-10-11 01:23:00,
2013-10-10 21:28:00,63.4,56.8,29.95,NNE,18,0.0,0.0,79,0.00,,,0.00,Wunderground v.1.15,2013-10-11 01:28:00,
2013-10-10 21:30:00,59.4,56.8,29.97,North,-999,0.0,0.0,91,0.00,,,-99.99,WeatherLink 6.0.3,2013-10-11 01:30:00,
2013-10-10 21:33:00,63.2,56.9,29.95,NNE,18,0.0,0.0,80,0.00,,,0.00,Wunderground v.1.15,2013-10-11 01:33:00,
2013-10-10 21:38:00,63.0,56.7,29.95,NNE,18,0.0,0.0,80,0.00,,,0.00,Wunderground v.1.15,2013-10-11 01:38:00,
2013-10-10 21:43:00,62.7,56.8,29.95,NNE,18,0.0,0.0,81,0.00,,,0.00,Wunderground v.1.15,2013-10-11 01:43:00,
2013-10-10 21:48:00,62.6,56.7,29.95,NNE,18,0.0,0.0,81,0.00,,,0.00,Wunderground v.1.15,2013-10-11 01:48:00,
2013-10-10 21:53:00,62.6,56.7,29.95,NNE,18,0.0,0.0,81,0.00,,,0.00,Wunderground v.1.15,2013-10-11 01:53:00,
2013-10-10 21:58:00,62.6,56.7,29.95,NW,321,0.0,0.0,81,0.00,,,0.00,Wunderground v.1.15,2013-10-11 01:58:00,
2013-10-10 22:00:00,59.6,57.0,29.98,North,-999,0.0,0.0,91,0.00,,,-99.99,WeatherLink 6.0.3,2013-10-11 02:00:00,
2013-10-10 22:04:00,62.5,56.6,29.95,NW,321,0.0,0.0,81,0.00,,,0.00,Wunderground v.1.15,2013-10-11 02:04:00,
2013-10-10 22:09:00,62.5,56.6,29.95,NW,321,0.0,0.0,81,0.00,,,0.00,Wunderground v.1.15,2013-10-11 02:09:00,
2013-10-10 22:14:00,62.5,56.6,29.95,NW,321,0.0,0.0,81,0.00,,,0.00,Wunderground v.1.15,2013-10-11 02:14:00,
2013-10-10 22:19:00,62.5,56.6,29.95,NW,321,0.0,0.0,81,0.00,,,0.00,Wunderground v.1.15,2013-10-11 02:19:00,
2013-10-10 22:24:00,62.3,56.7,29.95,NW,321,0.0,0.0,82,0.00,,,0.00,Wunderground v.1.15,2013-10-11 02:24:00,
2013-10-10 22:29:00,62.2,56.3,29.94,NW,321,0.0,0.0,81,0.00,,,0.00,Wunderground v.1.15,2013-10-11 02:29:00,
2013-10-10 22:30:00,61.0,58.4,29.99,North,-999,0.0,0.0,91,0.00,,,-99.99,WeatherLink 6.0.3,2013-10-11 02:30:00,
2013-10-10 22:34:00,62.1,56.2,29.94,NW,321,0.0,0.0,81,0.00,,,0.00,Wunderground v.1.15,2013-10-11 02:34:00,
2013-10-10 22:39:00,62.1,56.2,29.94,NW,321,0.0,0.0,81,0.00,,,0.00,Wunderground v.1.15,2013-10-11 02:39:00,
2013-10-10 22:44:00,62.0,56.1,29.94,NW,321,0.0,0.0,81,0.00,,,0.00,Wunderground v.1.15,2013-10-11 02:44:00,
2013-10-10 22:49:00,62.0,56.1,29.94,NW,321,0.0,0.0,81,0.00,,,0.00,Wunderground v.1.15,2013-10-11 02:49:00,
2013-10-10 22:54:00,62.0,56.1,29.94,NW,321,0.0,0.0,81,0.00,,,0.00,Wunderground v.1.15,2013-10-11 02:54:00,
2013-10-10 22:59:00,62.0,56.1,29.94,NW,321,0.0,0.0,81,0.00,,,0.00,Wunderground v.1.15,2013-10-11 02:59:00,
2013-10-10 23:00:00,63.2,59.6,29.99,North,-999,0.0,0.0,88,0.00,,,-99.99,WeatherLink 6.0.3,2013-10-11 03:00:00,
2013-10-10 23:04:00,62.0,56.1,29.94,NW,321,0.0,0.0,81,0.00,,,0.00,Wunderground v.1.15,2013-10-11 03:04:00,
2013-10-10 23:09:00,62.0,56.1,29.94,NW,321,0.0,0.0,81,0.00,,,0.00,Wunderground v.1.15,2013-10-11 03:09:00,
2013-10-10 23:14:00,61.9,56.0,29.93,NW,321,0.0,0.0,81,0.00,,,0.00,Wunderground v.1.15,2013-10-11 03:14:00,
2013-10-10 23:19:00,61.8,56.2,29.93,NW,321,0.0,0.0,82,0.00,,,0.00,Wunderground v.1.15,2013-10-11 03:19:00,
2013-10-10 23:24:00,61.8,56.2,29.93,NW,321,0.0,0.0,82,0.00,,,0.00,Wunderground v.1.15,2013-10-11 03:24:00,
2013-10-10 23:29:00,61.7,56.1,29.92,NW,321,0.0,0.0,82,0.00,,,0.00,Wunderground v.1.15,2013-10-11 03:29:00,
2013-10-10 23:30:00,64.6,60.0,29.99,NNE,22,0.0,1.0,85,0.00,,,-99.99,WeatherLink 6.0.3,2013-10-11 03:30:00,
2013-10-10 23:34:00,61.8,56.2,29.92,NW,321,0.0,0.0,82,0.00,,,0.00,Wunderground v.1.15,2013-10-11 03:34:00,
2013-10-10 23:39:00,61.8,56.2,29.92,NW,321,0.0,0.0,82,0.00,,,0.00,Wunderground v.1.15,2013-10-11 03:39:00,
2013-10-10 23:44:00,61.8,56.2,29.92,NW,321,0.0,0.0,82,0.00,,,0.00,Wunderground v.1.15,2013-10-11 03:44:00,
2013-10-10 23:49:00,61.9,56.3,29.92,NW,321,0.0,0.0,82,0.00,,,0.00,Wunderground v.1.15,2013-10-11 03:49:00,
2013-10-10 23:54:00,61.9,56.3,29.92,NW,321,0.0,0.0,82,0.00,,,0.00,Wunderground v.1.15,2013-10-11 03:54:00,